Simultaneous Nadir Overpasses (SNOs) Predictions

Prediction of SNOs between AQUA and NOAA-19 Satellite Orbit:

Table of predicted SNOs for the next 14.0 days since TLE Epoch: 2/18/2017
Index Date (AQUA) Time (AQUA) Lat,Lon (AQUA) SZA (AQUA ) Date (NOAA-19) Time (NOAA-19) Lat,Lon (NOAA-19) SZA (NOAA-19 ) Distance(km) Time Diff (sec)
1 02/19/2017 21:13:36 80.96,-179.21 94.40 02/19/2017 21:13:51 80.96,-179.13 94.38 1.68 15
2 02/22/2017 01:57:55 80.97, 109.61 93.62 02/22/2017 01:56:45 80.96, 109.78 93.63 3.21 70
3 02/22/2017 02:47:21 -80.96, -82.65 86.41 02/22/2017 02:47:42 -80.96, -82.61 86.43 1.10 21
4 02/24/2017 07:31:39 -80.95,-153.48 87.26 02/24/2017 07:30:35 -80.96,-153.53 87.22 1.60 64
5 02/24/2017 08:21:06 80.95, 14.07 92.75 02/24/2017 08:21:38 80.95, 14.16 92.72 1.69 32
6 02/26/2017 13:05:25 80.97, -57.18 91.95 02/26/2017 13:04:32 80.96, -57.02 91.95 2.95 53
7 02/26/2017 13:54:51 -80.95, 110.61 88.09 02/26/2017 13:55:28 -80.96, 110.66 88.11 0.80 37
8 02/28/2017 18:39:10 -80.97, 39.36 88.90 02/28/2017 18:38:22 -80.96, 39.31 88.87 1.18 48
9 02/28/2017 19:28:36 80.95,-152.80 91.06 02/28/2017 19:29:25 80.96,-152.72 91.03 1.32 49
10 03/03/2017 00:12:55 80.97, 135.89 90.25 03/03/2017 00:12:19 80.96, 136.01 90.25 2.39 36




NCC Satellite Simultaneous Nadir Overpasses (SNOs) Prediction Service
